[[{"header":{"parameterUnit":"m.s-1","parameterCategory":1,"la1":30.2991,"la2":30.254,"lo1":-89.0895,"lo2":-89.0444,"dy":0.0017,"dx":0.0017,"nx":28,"ny":28,"refTime":"2024-05-22T03:00:00:Z","depth":0,"parameterNumber":2,"parameterNumberName":"U-component_of_WINDS"},"data":[0,0,0,0,0,0,0,0,0,0,0,0,0,0,0,0,0,0,0,0,0,0,0,0,0,0,0,0,0,0,0,0,0,0,0,0,0,0,0,0,0,0,0,0,0,0,0,0,0,0,0,0,0,0,0,0,0,0,-1.9287,-1.9287,0,-1.9325,-1.9326,-1.9326,-1.9302,-1.9301,-1.9299,-1.9298,-1.9338,-1.934,-1.9343,0,0,0,0,0,0,0,0,0,0,0,0,0,-1.9193,-1.9195,-1.9287,-1.9287,-1.9288,-1.9325,-1.9326,-1.9326,-1.9302,-1.9301,-1.9299,-1.9298,-1.9338,-1.934,-1.9343,0,0,0,0,0,0,0,0,0,0,0,0,0,-1.9233,-1.9196,-1.9286,-1.928,-1.928,-1.9325,-1.9326,-1.9326,-1.9302,-1.9301,-1.9299,-1.9297,-1.9337,-1.934,-1.9343,-1.9397,0,0,-1.9353,-1.9354,0,0,0,0,0,0,0,0,-1.9231,-1.9236,-1.928,-1.9281,-1.928,-1.9307,-1.9307,-1.935,-1.9303,-1.9294,-1.9298,-1.9296,-1.9329,-1.9333,-1.9344,-1.9399,-1.94,-1.9353,-1.9355,-1.9356,-1.9357,0,0,0,0,0,0,0,-1.9228,-1.9235,-1.9302,-1.9281,-1.9281,-1.9276,-1.9279,-1.9315,-1.9321,-1.9294,-1.9293,-1.9298,-1.9329,-1.9341,-1.9345,-1.9401,-1.9353,-1.9356,-1.9358,-1.9359,-1.9503,-1.9505,0,0,0,0,0,0,-1.9226,-1.9233,-1.9301,-1.9303,-1.9251,-1.9279,-1.9283,-1.93,-1.932,-1.9322,-1.9299,-1.9296,-1.9336,-1.9341,-1.9346,-1.9411,-1.9356,-1.9359,-1.9361,-1.9501,-1.9503,-1.9505,0,0,0,0,0,0,-1.9224,-1.9232,-1.9299,-1.9267,-1.9275,-1.9282,-1.9302,-1.9302,-1.9314,-1.9324,-1.9325,-1.931,-1.9335,-1.9342,-1.9385,-1.9412,-1.9361,-1.9364,-1.9499,-1.9502,-1.9504,-1.9541,0,0,0,0,0,0,-1.9221,-1.9231,-1.9252,-1.9268,-1.9277,-1.9337,-1.9303,-1.9304,-1.9319,-1.9316,-1.9334,-1.9336,-1.9334,-1.938,-1.9388,-1.9415,-1.9366,-1.9496,-1.95,-1.9503,-1.9537,-1.9544,-1.9551,0,0,0,0,0,-1.9218,-1.926,-1.9253,-1.9261,-1.9303,-1.9338,-1.9344,-1.9341,-1.9321,-1.9342,-1.9349,-1.9335,-1.9408,-1.9385,-1.9393,-1.9422,-1.9494,-1.9499,-1.9503,-1.9534,-1.9543,-1.955,0,0,0,0,0,0,-1.9247,-1.9262,-1.9254,-1.9303,-1.932,-1.9334,-1.936,-1.935,-1.9373,-1.9369,-1.9365,-1.9369,-1.9414,-1.9422,-1.9396,-1.9476,-1.9448,-1.9454,-1.9469,-1.9477,-1.9484,-1.9481,-1.9369,0,0,0,0,0,-1.9259,-1.9287,-1.9299,-1.9341,-1.9349,-1.9353,-1.9369,-1.9365,-1.9382,-1.9389,-1.9399,-1.9416,-1.9443,-1.946,-1.9485,-1.9538,-1.9542,-1.9562,-1.9569,-1.9575,-1.958,-1.9609,-1.9618,-1.9519,-1.9519,-1.9519,0,0,-1.9285,-1.9296,-1.9314,-1.9347,-1.9359,-1.9388,-1.9359,-1.9391,-1.9413,-1.9394,-1.9435,-1.9443,-1.9462,-1.951,-1.9532,-1.9519,-1.9608,-1.958,-1.9584,-1.9587,-1.9615,-1.9624,-1.9632,-1.9522,-1.9522,-1.9521,0,0,-1.9345,-1.9357,-1.9393,-1.9406,-1.9426,-1.9428,-1.9437,-1.9453,-1.9458,-1.9499,-1.9486,-1.9512,-1.9558,-1.9572,-1.9585,-1.9653,-1.9641,-1.9661,-1.9697,-1.9725,-1.9733,-1.974,-1.9764,-1.9773,-1.9666,-1.9666,-1.9666,0,-1.9374,-1.9417,-1.9413,-1.9446,-1.9461,-1.9446,-1.9483,-1.9496,-1.9523,-1.9534,-1.9518,-1.9576,-1.9588,-1.9639,-1.9656,-1.9667,-1.9677,-1.9659,-1.9732,-1.9739,-1.9745,-1.9768,-1.9778,-1.9669,-1.9668,-1.9668,-1.9668,0,-1.9452,-1.9482,-1.9509,-1.9535,-1.9554,-1.9589,-1.959,-1.9609,-1.9605,-1.9609,-1.9652,-1.9665,-1.9693,-1.9705,-1.9701,-1.9757,-1.9748,-1.9732,-1.9704,-1.9757,-1.9779,-1.9788,-1.9672,-1.9671,-1.967,-1.967,0,0,-1.9532,-1.9556,-1.9566,-1.9578,-1.9598,-1.9622,-1.9656,-1.9683,-1.97,-1.9719,-1.9748,-1.9788,-1.9774,-1.9789,-1.9786,-1.9811,-1.9864,-1.9792,-1.9793,-1.9806,-1.9927,-1.9939,-1.9949,-1.9857,-1.9858,-1.986,-1.9926,0,-1.9595,-1.9655,-1.9652,-1.9709,-1.9737,-1.9723,-1.9753,-1.9769,-1.9774,-1.9799,-1.9805,-1.9833,-1.9812,-1.9821,-1.9845,-1.9852,-1.9888,-1.9848,-1.9884,-1.9886,-1.988,-1.996,-1.9973,-2.0034,-1.9934,-1.9935,-1.9936,0,-1.9675,-1.9697,-1.9756,-1.9773,-1.9785,-1.9812,-1.9837,-1.986,-1.9879,-1.9881,-1.9898,-1.9891,-1.9927,-1.9898,-1.9947,-1.992,-1.9935,-1.9941,-1.9943,-1.9946,-1.9914,-1.9966,-2.0054,-2.0063,-1.995,-1.9949,-1.9948,0,-1.9729,-1.9773,-1.9814,-1.9824,-1.9845,-1.9864,-1.9874,-1.989,-1.9907,-1.9929,-1.994,-1.9966,-1.998,-2.0001,-2.0001,-1.998,-2.0051,-2.0023,-2.0054,-2.0055,-2.007,-2.0069,-2.0161,-2.0079,-2.0079,-2.0079,-2.0079,0,-1.9799,-1.9835,-1.9838,-1.9863,-1.9904,-1.9901,-1.9942,-1.995,-1.9965,-1.9992,-1.9981,-2.0007,-2.0006,-2.0032,-2.0033,-2.0074,-2.0081,-2.0084,-2.0084,-2.0085,-2.0085,-2.0095,-2.009,-2.0082,-2.0081,-2.008,-2.008,0,-1.9865,-1.9868,-1.9912,-1.9928,-1.9933,-1.9962,-1.9976,-2.0,-2.0004,-2.0039,-2.0047,-2.0054,-2.0084,-2.0087,-2.0122,-2.0123,-2.0172,-2.0167,-2.0166,-2.0165,-2.0197,-2.0194,-2.0299,-2.0313,-2.0222,-2.0223,-2.0224,0,-1.991,-1.9937,-1.9956,-1.9974,-1.9984,-2.0012,-2.0029,-2.0028,-2.0046,-2.0069,-2.0091,-2.012,-2.0143,-2.0193,-2.0201,-2.0228,-2.0224,-2.0259,-2.0228,-2.0229,-2.0225,-2.0224,-2.0227,-2.0265,-2.0266,-2.0267,-2.0268,0,-1.9989,-1.9989,-2.0014,-2.0039,-2.006,-2.008,-2.0099,-2.0114,-2.0115,-2.0136,-2.0167,-2.0185,-2.0221,-2.025,-2.0277,-2.0287,-2.0278,-2.0277,-2.0286,-2.0288,-2.0286,-2.0288,-2.0183,-2.0275,-2.0274,-2.0274,-2.0273,-2.0273,-2.0046,-2.007,-2.0088,-2.0116,-2.013,-2.0148,-2.0171,-2.0179,-2.0204,-2.0233,-2.0231,-2.0265,-2.0284,-2.0318,-2.0331,-2.0358,-2.0346,-2.0359,-2.0362,-2.0365,-2.0369,-2.0282,-2.0363,-2.0362,-2.0362,-2.0362,-2.0362,0,-2.0125,-2.0135,-2.0161,-2.0188,-2.021,-2.0199,-2.022,-2.0239,-2.0269,-2.0287,-2.031,-2.0346,-2.0375,-2.0385,-2.0414,-2.0433,-2.043,-2.0441,-2.0439,-2.0442,-2.0377,-2.0367,-2.0443,-2.0443,-2.0443,-2.0443,-2.0443,-2.0443,-2.0169,-2.021,-2.0212,-2.026,-2.027,-2.0303,-2.0316,-2.0333,-2.0347,-2.0387,-2.0411,-2.0418,-2.0433,-2.0462,-2.0488,-2.049,-2.0501,-2.0514,-2.0515,-2.0455,-2.0446,-2.0439,-2.0429,-2.0517,-2.0517,-2.0577,-2.0578,-2.0578]},{"header":{"parameterUnit":"m.s-1","parameterCategory":1,"la1":30.2991,"la2":30.254,"lo1":-89.0895,"lo2":-89.0444,"dy":0.0017,"dx":0.0017,"nx":28,"ny":28,"refTime":"2024-05-22T03:00:00:Z","depth":0,"parameterNumber":3,"parameterNumberName":"V-component_of_WINDS"},"data":[0,0,0,0,0,0,0,0,0,0,0,0,0,0,0,0,0,0,0,0,0,0,0,0,0,0,0,0,0,0,0,0,0,0,0,0,0,0,0,0,0,0,0,0,0,0,0,0,0,0,0,0,0,0,0,0,0,0,4.1777,4.1777,0,4.1812,4.1812,4.1813,4.1743,4.1741,4.1739,4.1737,4.177,4.1773,4.1776,0,0,0,0,0,0,0,0,0,0,0,0,0,4.1646,4.1648,4.1777,4.1777,4.1778,4.1812,4.1812,4.1813,4.1744,4.1741,4.1738,4.1736,4.1769,4.1772,4.1776,0,0,0,0,0,0,0,0,0,0,0,0,0,4.1694,4.1649,4.1777,4.1747,4.1745,4.1812,4.1812,4.1813,4.1744,4.1741,4.1738,4.1734,4.1768,4.1772,4.1776,4.1872,0,0,4.179,4.1792,0,0,0,0,0,0,0,0,4.1691,4.1699,4.1751,4.175,4.1747,4.177,4.1778,4.1833,4.1745,4.1745,4.1737,4.1733,4.1772,4.1776,4.179,4.1874,4.1875,4.179,4.1793,4.1795,4.1796,0,0,0,0,0,0,0,4.1688,4.1697,4.179,4.1752,4.175,4.1731,4.1734,4.1788,4.1777,4.1744,4.1739,4.1745,4.177,4.1786,4.179,4.1875,4.179,4.1794,4.1797,4.1799,4.2037,4.204,0,0,0,0,0,0,4.1689,4.1694,4.1789,4.1792,4.171,4.1736,4.174,4.1766,4.1776,4.1775,4.1748,4.1741,4.178,4.1785,4.1791,4.1902,4.1795,4.1799,4.1802,4.2033,4.2038,4.2041,0,0,0,0,0,0,4.1686,4.1698,4.1788,4.1742,4.1752,4.1742,4.1772,4.1768,4.1784,4.1779,4.1776,4.1766,4.1778,4.1785,4.1852,4.1902,4.1801,4.1805,4.2029,4.2034,4.2039,4.2126,0,0,0,0,0,0,4.1683,4.1697,4.1735,4.1743,4.1755,4.185,4.1775,4.1772,4.1792,4.1784,4.1795,4.1793,4.1775,4.1846,4.1857,4.1907,4.1809,4.2024,4.2031,4.2038,4.2118,4.2134,4.2147,0,0,0,0,0,4.1678,4.1757,4.1737,4.1749,4.1801,4.1853,4.1859,4.1838,4.1797,4.1833,4.1829,4.1793,4.1896,4.1853,4.1865,4.1917,4.2021,4.2029,4.2037,4.2112,4.2131,4.2146,0,0,0,0,0,0,4.1754,4.1758,4.1735,4.182,4.1837,4.1841,4.1886,4.1858,4.1886,4.1878,4.1849,4.1852,4.1924,4.1927,4.188,4.2009,4.1951,4.1962,4.2004,4.2022,4.2035,4.2032,4.1813,0,0,0,0,0,4.1781,4.1824,4.1824,4.1899,4.1908,4.1896,4.1918,4.19,4.1916,4.1922,4.1924,4.1939,4.1975,4.1999,4.2031,4.2119,4.2119,4.2161,4.2175,4.2186,4.2195,4.224,4.2258,4.2068,4.2068,4.2068,0,0,4.1836,4.1844,4.1872,4.1914,4.1925,4.1968,4.1903,4.1952,4.1983,4.1929,4.1992,4.1994,4.201,4.2087,4.2122,4.2092,4.2248,4.2197,4.2206,4.2209,4.225,4.2268,4.2284,4.2074,4.2073,4.2072,0,0,4.1959,4.197,4.2032,4.2044,4.2062,4.2053,4.2068,4.2077,4.2076,4.2139,4.2099,4.2136,4.2198,4.221,4.2225,4.2351,4.2318,4.2363,4.2435,4.2479,4.2494,4.2507,4.255,4.2566,4.2372,4.2372,4.2372,0,4.2025,4.209,4.2067,4.2119,4.2137,4.2092,4.2153,4.2166,4.2193,4.2206,4.2174,4.225,4.2257,4.2336,4.2367,4.2381,4.2395,4.236,4.2494,4.2507,4.2519,4.2559,4.2576,4.2377,4.2377,4.2376,4.2376,0,4.2169,4.2215,4.2263,4.229,4.2315,4.2371,4.2355,4.2383,4.2363,4.2357,4.2421,4.2428,4.246,4.2478,4.2459,4.2554,4.2535,4.2499,4.244,4.2542,4.258,4.2596,4.2385,4.2383,4.2381,4.238,0,0,4.234,4.2354,4.2372,4.2383,4.2399,4.2433,4.2487,4.2519,4.2542,4.2562,4.2605,4.2659,4.2625,4.2641,4.2623,4.2662,4.2759,4.262,4.262,4.2644,4.2862,4.2887,4.2906,4.2738,4.2741,4.2743,4.2859,0,4.246,4.2553,4.2534,4.2624,4.2665,4.2622,4.2668,4.2682,4.2678,4.2711,4.2706,4.2744,4.2698,4.2707,4.2744,4.274,4.2802,4.2731,4.2775,4.2777,4.2771,4.2926,4.2954,4.3063,4.2874,4.2877,4.2879,0,4.2612,4.2638,4.2733,4.2741,4.2757,4.2799,4.2827,4.2859,4.2874,4.2868,4.2886,4.286,4.2911,4.2853,4.2923,4.2875,4.2892,4.2893,4.2896,4.2898,4.2833,4.293,4.3098,4.3113,4.2902,4.29,4.2898,0,4.2724,4.2783,4.2847,4.2858,4.287,4.29,4.2906,4.2917,4.2937,4.2961,4.2973,4.3003,4.3019,4.3041,4.3023,4.2983,4.3095,4.3036,4.309,4.309,4.3114,4.3112,4.3285,4.3129,4.3128,4.3128,4.3128,0,4.2859,4.2918,4.2897,4.2937,4.3001,4.2978,4.3042,4.3043,4.3053,4.309,4.3055,4.3091,4.3066,4.3099,4.3085,4.3143,4.3151,4.3147,4.3142,4.3149,4.3149,4.3158,4.3149,4.3132,4.3131,4.3131,4.313,0,4.2994,4.2983,4.305,4.3055,4.3058,4.3105,4.3109,4.3144,4.3138,4.3186,4.3195,4.3185,4.3222,4.3207,4.3246,4.3236,4.3311,4.3297,4.3306,4.3302,4.3356,4.3351,4.3539,4.3562,4.3393,4.3394,4.3396,0,4.308,4.3125,4.3135,4.3158,4.3166,4.3204,4.3224,4.3203,4.3225,4.3245,4.3277,4.3312,4.3337,4.3398,4.3394,4.3423,4.3408,4.3472,4.3412,4.3417,4.3407,4.3404,4.3407,4.3484,4.3486,4.3487,4.3489,0,4.3233,4.3225,4.3256,4.3286,4.3311,4.3333,4.3352,4.3373,4.3352,4.3379,4.3416,4.3437,4.3477,4.351,4.3536,4.3541,4.3511,4.3508,4.3521,4.3528,4.3531,4.3528,4.3337,4.3503,4.3502,4.3501,4.35,4.3499,4.3344,4.3381,4.3394,4.343,4.3442,4.346,4.3493,4.3491,4.3522,4.3553,4.3539,4.3582,4.3594,4.3626,4.3634,4.3667,4.3641,4.3662,4.3667,4.3672,4.3678,4.3527,4.3672,4.3671,4.3671,4.367,4.367,0,4.3493,4.3499,4.3533,4.356,4.3588,4.3559,4.3578,4.3602,4.3641,4.3655,4.3681,4.3724,4.3756,4.3754,4.3783,4.381,4.3797,4.3818,4.3815,4.3816,4.37,4.3684,4.3828,4.3828,4.3828,4.3828,4.3828,4.3828,4.3574,4.3634,4.3628,4.3693,4.3698,4.3741,4.3754,4.377,4.3781,4.383,4.3857,4.3856,4.3863,4.3892,4.392,4.3918,4.393,4.3956,4.3949,4.384,4.3824,4.3809,4.3794,4.3959,4.3959,4.4062,4.4063,4.4064]}]]